Regional Weather Roundup
Issued by NWS

Home | Current Version | Previous Version | Graphics & Text | Print | Product List | Glossary On
Versions: 1 2 3 4 5 6 7 8 9 10 11 12 13 14 15 16 17 18 19 20 21 22 23 24 25 26 27 28 29 30 31 32 33 34 35 36 37 38 39 40 41 42 43 44 45 46 47 48 49 50
000
ASUS43 KTOP 250159
RWRKS

WEATHER ROUNDUP FOR KANSAS
NATIONAL WEATHER SERVICE GOODLAND KS
800 PM CST WED DEC 24 2014

NOTE:  "FAIR" INDICATES FEW OR NO CLOUDS BELOW 12,000 FEET WITH NO
SIGNIFICANT WEATHER AND/OR OBSTRUCTIONS TO VISIBILITY.

KSZ001>006-013>018-027>032-041>047-250300-
NORTHWEST KANSAS

CITY           SKY/WX    TMP DP  RH WIND       PRES   REMARKS
GOODLAND       MOCLDY    37  18  46 SW16      29.64F WCI  28
HAYS           CLEAR     32  16  51 S10       29.72F WCI  24
HILL CITY      CLEAR     35  14  42 SW10      29.68F WCI  27
RUSSELL        CLEAR     31  23  72 S10       29.73F WCI  22
$$

KSZ061>065-074>080-084>089-250300-
SOUTHWEST KANSAS

CITY           SKY/WX    TMP DP  RH WIND       PRES   REMARKS
DODGE CITY     CLEAR     30  17  58 S9        29.75F
ELKHART          N/A     38  13  36 SW13        N/A  WCI  30
GARDEN CITY    CLEAR     31  16  54 S10       29.72F WCI  22
GREAT BEND     CLEAR     30  21  69 S10       29.77F WCI  21
LIBERAL        CLEAR     34  14  44 S12       29.76F WCI  25
$$

KSZ066>073-081>083-090>101-250300-
SOUTHEAST KANSAS

CITY           SKY/WX    TMP DP  RH WIND       PRES   REMARKS
CHANUTE        CLEAR     29  27  92 S6        29.89F
COFFEYVILLE    CLEAR     32  28  85 S6        29.91F
HUTCHINSON     CLEAR     33  22  63 S6        29.82F
NEWTON         CLEAR     30  21  69 S7        29.84F
PARSONS        CLEAR     32  28  85 SE3       29.91F
WICHITA INTL   PTCLDY    31  23  72 S8        29.85F
WICHITA JABRA  CLEAR     31  24  75 S7        29.84F
WINFIELD       CLEAR     32  27  81 S6        29.89F
$$

KSZ007>012-019>026-033>040-048>060-102>105-250300-
NORTHEAST KANSAS

CITY           SKY/WX    TMP DP  RH WIND       PRES   REMARKS
CONCORDIA      CLEAR     34  25  69 S15       29.73F WCI  24
EMPORIA        CLEAR     28  26  92 S9        29.85F
LAWRENCE       CLOUDY    34  28  79 SW8       29.87R
MANHATTAN      CLEAR     27  24  89 CALM      29.81F
OLATHE IND     CLOUDY    33  29  85 SW13      29.87R WCI  24
OLATHE EXE     CLOUDY    34  30  85 SW12      29.85R WCI  25
SALINA         CLEAR     32  26  78 S7        29.80F
TOPEKA BILLARD CLEAR     33  28  81 S3        29.86S
TOPEKA FORBES  CLEAR     31  27  85 S7        29.85S
$$



USA.gov is the U.S. government's official web portal to all federal, state and local government web resources and services.